Regional Weather Roundup
Issued by NWS

Home | Current Version | Previous Version | Graphics & Text | Print | Product List | Glossary On
Versions: 1 2 3 4 5 6 7 8 9 10 11 12 13 14 15 16 17 18 19 20 21 22 23 24 25 26 27 28 29 30 31 32 33 34 35 36 37 38 39 40 41 42 43 44 45 46 47 48 49 50
000
ASUS45 KCYS 181610
RWRWY

WYOMING REGIONAL WEATHER ROUNDUP
NATIONAL WEATHER SERVICE CHEYENNE WY
900 AM MST SUN FEB 18 2018

NOTE:  "FAIR" INDICATES FEW OR NO CLOUDS BELOW 12,000 FEET
WITH NO SIGNIFICANT WEATHER AND/OR OBSTRUCTIONS TO VISIBILITY.

WYZ001-181700-
YELLOWSTONE NATIONAL PARK

CITY           SKY/WX    TMP DP  RH WIND       PRES   REMARKS
LK YELLOWSTONE   N/A     22  19  89 VRB7G18   29.41S WCI  13
W YELLOWSTONE  NOT AVBL

$$
WYZ002>013-054>058-071-098>099-181700-
NORTHERN WYOMING

CITY           SKY/WX    TMP DP  RH WIND       PRES   REMARKS
JACKSON        FLURRIES  28  25  88 S21       29.47R WCI  15
CODY           SNOW       8   5  87 N17       29.60R VSB 1/4 WCI -10
GREYBULL       SNOW      14  12  92 NW32G39   29.55R VSB<1/4 WCI  -7
WORLAND        LGT SNOW  18  15  88 NW20      29.57R VSB 1   WCI   2
SHERIDAN       SNOW      13  10  88 NW18      29.71R VSB 1/4 WCI  -4
BUFFALO        HVY SNOW  11   7  84 N24G37    29.58R VSB 1/4 WCI  -9
GILLETTE       SNOW      15  11  83 N23G32    29.60R VSB 1/2 WCI  -3
HULETT         LGT SNOW  18  14  86 MISG      29.62R
NEWCASTLE      FAIR      32  28  86 NW13      29.53R WCI  22

$$
WYZ014>020-022>026-101>103-181700-
CENTRAL WYOMING

CITY           SKY/WX    TMP DP  RH WIND       PRES   REMARKS
BIG PINEY      FAIR      35  27  72 W13G28    29.46F WCI  26
PINEDALE       CLOUDY    32  25  74 W15G23    29.47F WCI  22
DUBOIS           N/A    N/A N/A N/A MISG        N/A
LANDER         FAIR      42  25  50 W30G43    29.38R
RIVERTON       FAIR      33  23  66 N13       29.41S WCI  24
CASPER         CLOUDY    31  24  75 MISG      29.48R
DOUGLAS        CLOUDY    31  27  85 NE17G24   29.52R WCI  19

$$
WYZ021-027>030-104>119-181700-
SOUTHERN WYOMING

CITY           SKY/WX    TMP DP  RH WIND       PRES   REMARKS
EVANSTON       CLOUDY    40  18  41 SW40G54   29.54F WCI  27
FORT BRIDGER   FAIR      42  18  37 W43G56    29.55S
ROCK SPRINGS   CLOUDY    42  11  28 SW17      29.54R
DIXON          FAIR      37  18  46 S26G35    29.64F WCI  25
RAWLINS        FAIR      41  15  35 SW37G46   29.52S
SARATOGA       FAIR      41  14  33 SW36G48   29.55F
LARAMIE        FAIR      36  12  37 SW18G29   29.52F WCI  26
CHEYENNE       FAIR      52   9  17 W28G37    29.52F
TORRINGTON     FAIR      58  16  19 SW14      29.46F
PINE BLUFFS    FAIR      46  14  27 MISG      29.53F

$$



USA.gov is the U.S. government's official web portal to all federal, state and local government web resources and services.